BEIDOU 17 (C31)

Last updated on Dec. 12, 2019, 4:25 a.m. UTC

1 40549U 15019A   19344.91993641 -.00000179  00000-0  00000-0 0  9999
2 40549  53.3302 323.3831 0036191 194.6746 349.3690  1.00272766 17216
UTC
Height (km)
Latitude
Longitude
Inclination
Orbital Period
UTC large
Height (km)
Speed (km/s)
/
Latitude / Longitude
Inclination (degrees)
Orbital Period (minutes)
Azimuth
Elevation
Range (km)
Doppler Factor
iOS Compass Heading
iOS Angle

Next 30 passes for location: Hong Kong

Rise time Rise Azimuth (degrees) Set time Set Azimuth (degrees) Duration Max altitude (degrees)

No matching passes for this satellites